AirNav   Air Wisconsin pilot careers
 
 377 users online  

36S Happy Camp Airport
Happy Camp, California, USA

GOING TO HAPPY CAMP?


FAA INFORMATION EFFECTIVE 21 JUNE 2018

Location

FAA Identifier: 36S
Lat/Long: 41-47-26.4460N / 123-23-20.2000W
41-47.440767N / 123-23.336667W
41.7906794 / -123.3889444
(estimated)
Elevation: 1209 ft. / 368.5 m (surveyed)
Variation: 18E (1985)
Time zone: UTC -7 (UTC -8 during Standard Time)
Zip code: 96039

Airport Operations

Airport use: Open to the public
Activation date: 10/1951
Control tower: no
ARTCC: SEATTLE CENTER
FSS: RANCHO MURIETA FLIGHT SERVICE STATION
NOTAMs facility: RIU (NOTAM-D service available)
Attendance: UNATNDD
Pattern altitude: 2209 ft. MSL
Wind indicator: yes
Segmented circle: yes

Airport Communications

CTAF: 122.9

Nearby radio navigation aids

VOR radial/distance  VOR name  Freq  Var
FJSr289/33.2FORT JONES VOR/DME109.6019E
CECr075/38.1CRESCENT CITY VORTAC109.0014E

Airport Services

Parking: tiedowns
Airframe service: NONE
Powerplant service: NONE
Bottled oxygen: NONE
Bulk oxygen: NONE

Runway Information

Runway 4/22

Dimensions: 3000 x 50 ft. / 914 x 15 m
Surface: asphalt, in fair condition
Weight bearing capacity: 
Single wheel: 30.0
RUNWAY 4  RUNWAY 22
Latitude: 41-47.298167N41-47.563167N
Longitude: 123-23.608667W123-23.051333W
Traffic pattern: rightleft
Markings: basic, in fair conditionbasic, in fair condition
Runway end identifier lights: nono
Obstructions: 25 ft. tree, 500 ft. from runway, 120 ft. left of centerline, 12:1 slope to clear
RWY 04 HAS 3 FT FENCE O FEET FROM RWY END AND 80 FEET L.
10 ft. brush, 200 ft. from runway, 125 ft. right of centerline
RY 22 HAS 8 FT SHRUB 0 FEET FM RY END AND 115 FT RIGHT.

Airport Ownership and Management from official FAA records

Ownership: Publicly-owned
Owner: U.S. FOREST SERVICE
63822 HIGHWAY 96
HAPPY CAMP, CA 96039-0377
Phone 530-493-1730
OPERD/MAINTD BYCOUNTY OF SISKIYOU COUNTY.
Manager: MELISSA CUMMINS
190 GREENHORN ROAD
YREKA, CA 96097
Phone (530) 842-8220
DIRECTOR OF AIRPORTS OFFICE IN YREKA.

Airport Operational Statistics

Aircraft operations: 150/year *
100% transient general aviation
* for 12-month period ending 31 December 2016

Additional Remarks

E94 US FOREST SERVICE.
RWY 22 HAS +35' TREES 600' FROM THLD 125' EITHER SIDE OF CNTRLN.
A93 US FOREST SVC MANS HELIPORT MAY THROUGH SEP.

Instrument Procedures

There are no published instrument procedures at 36S.

Some nearby airports with instrument procedures:

KCEC - Jack Mc Namara Field Airport (38 nm W)
KSIY - Siskiyou County Airport (41 nm E)
KMFR - Rogue Valley International - Medford Airport (42 nm NE)
3S8 - Grants Pass Airport (43 nm N)
O46 - Weed Airport (46 nm SE)
 
Loc | Ops | Rwys | IFR | FBO | Links
Com | Nav | Svcs | Stats | Notes

AirNav Hotels Sweepstakes
 
Area around 36S (Happy Camp Airport)
 
Road maps at: MapQuest Bing Google
 
Aerial photo
WARNING: Photo may not be current or correct
Aerial photo of 36S (Happy Camp Airport)
Do you have a better or more recent aerial photo of Happy Camp Airport that you would like to share? If so, please send us your photo.

 
Sectional chart

 
Airport distance calculator
Flying to Happy Camp Airport? Find the distance to fly.

From to 36S

Sunrise and sunset
Times for 23-Jun-2018
 Local
(UTC-7)
 Zulu
(UTC)
Morning civil twilight05:0612:06
Sunrise05:4012:40
Sunset20:5103:51
Evening civil twilight21:2604:26

Current date and time
Zulu (UTC)  23-Jun-2018 08:52:51
Local (UTC-7)  23-Jun-2018 01:52:51
 
METAR
3S4 
23nm NW 
SuperAWOS
230755Z AUTO 00000KT 10SM 18/14 A3011
KCEC 
37nm W 
230756Z AUTO 00000KT 5SM BR CLR 11/09 A3004 RMK AO2 SLP173 T01060094 401670100
S03 
40nm NE 
SuperAWOS
230815Z AUTO 00000KT 10SM 13/07 A3015
KSIY 
41nm E 
230753Z AUTO 05012G18KT 10SM CLR 17/02 A3011 RMK AO2 SLP181 T01670022 403110117
KMFR 
42nm NE 
230753Z AUTO 27003KT 10SM CLR 18/07 A3010 RMK AO2 SLP184 T01780072 403110133
3S8 
43nm N 
SuperAWOS
230755Z AUTO 00000KT 10SM 19/14 A3014
KBOK 
44nm NW 
230756Z AUTO 00000KT 10SM CLR 13/11 A3005 RMK AO2 SLP187 T01330111 402610106
TAF
KCEC 
37nm W 
230521Z 2306/2406 35015G23KT P6SM SKC TEMPO 2307/2311 BKN010 FM231100 35010KT 6SM BR BKN006 FM231700 33015G25KT P6SM SKC
KMFR 
42nm NE 
230532Z 2306/2406 33007KT P6SM SKC
NOTAMs
Click for the latest NOTAMs
NOTAMs are issued by the DoD/FAA and will open in a separate window not controlled by AirNav.

 

 
 

Would you like to see your business listed on this page?

 If your business provides an interesting product or service to pilots, flight crews, aircraft, or users of the Happy Camp Airport, you should consider listing it here.  To start the listing process, click on the button below
 
Add a business
 

Other Pages about Happy Camp Airport

Update a link
 
Copyright © AirNav, LLC. All rights reserved. Privacy Policy  Contact